Regional Weather Roundup
Issued by NWS

Home | Current Version | Previous Version | Text Only | Print | Product List | Glossary On
Versions: 1 2 3 4 5 6 7 8 9 10 11 12 13 14 15 16 17 18 19 20 21 22 23 24 25 26 27 28 29 30 31 32 33 34 35 36 37 38 39 40 41 42 43 44 45 46 47 48 49 50
000
ASUS43 KDTX 260310
RWRMI
MICHIGAN HOURLY REGIONAL WEATHER ROUNDUP
NATIONAL WEATHER SERVICE DETROIT/PONTIAC MI
1100 PM EDT SAT OCT 25 2014

NOTE: "FAIR" INDICATES FEW OR NO CLOUDS BELOW 12,000 FEET WITH NO
SIGNIFICANT WEATHER AND/OR OBSTRUCTION TO VISIBILITY.

MIZ047>049-052>055-059>063-066>070-074>076-081>083-260400-
SOUTHEAST LOWER MICHIGAN

CITY           SKY/WX    TMP DP  RH WIND       PRES   REMARKS
ADRIAN         CLEAR     52  32  46 W5        29.87R
ALMA           CLEAR     51  32  48 W8        29.83R
ANN ARBOR      CLEAR     54  31  41 NW10      29.83R
BAD AXE        CLEAR     47  37  66 NW6       29.77R
CARO           CLEAR     47  35  63 W6        29.78R
DETROIT CITY   CLEAR     59  31  34 W9        29.80R
DETROIT        CLEAR     54  33  45 W8        29.82S
FLINT          CLEAR     52  34  50 W13       29.81R
GROSSE ILE     CLEAR     55  32  41 W6        29.81S
HILLSDALE      CLEAR     54  32  44 NW12      29.87R
HOWELL         CLEAR     52  31  45 W10G17    29.82S

CITY           SKY/WX    TMP DP  RH WIND       PRES   REMARKS
JACKSON        CLEAR     53  32  44 W9        29.86R
LAMBERTVILLE   CLEAR     54  32  43 CALM      29.86R
LANSING        CLEAR     50  32  50 W9        29.85R
LAPEER         FAIR      52  32  45 W8        29.79R
MASON          CLEAR     50  34  54 W6        29.85R
MONROE         CLEAR     48  34  57 W6        29.82S
MT. CLEMENS    CLEAR     55  32  40 W13       29.76S
PONTIAC        PTCLDY    53  31  42 W13       29.80R
PORT HOPE        N/A     52  39  61 NW12G18   29.74R
PORT HURON     CLEAR     54  34  47 W6        29.77R
TRI CITIES     CLEAR     49  34  56 W9        29.81R
TROY           CLEAR     57  28  33 W13G20    29.81S
SAGINAW HB     CLEAR     52  32  46 W10       29.79R
$$
MIZ043>046-050>051-056>058-064>065-071>073-077>080-260400-
SOUTHWEST LOWER MICHIGAN

CITY           SKY/WX    TMP DP  RH WIND       PRES   REMARKS
BATTLE CREEK   CLEAR     54  33  45 NW13      29.89R
BENTON HARBOR  CLEAR     58  37  45 NW12G26   29.92R
BIG RAPIDS     CLEAR     53  37  54 NW12G17   29.83R
COLDWATER      CLEAR     53  34  48 W7        29.89R
FREMONT        FAIR      54  27  35 NW12G18   29.85S
HOLLAND        CLEAR     59  39  47 NW15G22   29.90R
GRAND RAPIDS   CLEAR     56  34  43 W13       29.87R
IONIA          FAIR      55  30  38 W12       29.84S
KALAMAZOO      CLEAR     57  29  34 NW13G25   29.90R
LUDINGTON      CLEAR     55  41  60 NW12G17   29.87S
MARSHALL       CLEAR     52  33  48 W8        29.87R
MOUNT PLEASANT CLEAR     51  35  53 W8        29.82R
MUSKEGON       CLEAR     58  35  42 NW17G29   29.88R
SOUTH HAVEN    CLEAR     58  44  58 NW12G18   29.92R
$$
MIZ016>042-260400-
NORTHERN LOWER MICHIGAN

CITY           SKY/WX    TMP DP  RH WIND       PRES   REMARKS
ALPENA         PTCLDY    51  30  44 W10G20    29.70F
BEAVER ISLAND  CLEAR     52  35  51 W9G18     29.78S
BELLAIRE       CLEAR     53  33  45 NW8G16    29.81R
CADILLAC       CLEAR     47  33  57 NW9       29.82R
CHARLEVOIX     CLEAR     53  37  55 W17G25    29.82R
FRANKFORT      CLEAR     55  31  39 NW12G22   29.85R
GAYLORD        CLEAR     49  31  49 W10G18    29.76S
GRAYLING       CLEAR     50  29  44 NW13G22   29.79S
HARBOR SPRINGS CLEAR     52  32  46 W18G26    29.76S
HOUGHTON LAKE  CLEAR     49  32  52 NW13G20   29.79R
MANISTEE       CLEAR     54  36  50 NW8       29.87R
OSCODA         CLEAR     46  32  59 W7        29.73S
PELLSTON       CLEAR     51  33  50 NW21G32   29.75R
TRAVERSE CITY  CLEAR     53  31  42 NW8       29.82R
$$
MIZ007>008-015-260400-
EASTERN UPPER MICHIGAN

CITY           SKY/WX    TMP DP  RH WIND       PRES   REMARKS
KINROSS        CLEAR     48  36  61 NW23G36   29.67S
MACKINAC ISLAN CLEAR     50  35  55 NW16G24   29.73R
NEWBERRY       CLEAR     47  34  60 NW13G23   29.74S
S. S. MARIE    PTCLDY    48  36  63 NW23G37   29.66S
MUNISING         N/A     52  35  52 NW13G26   29.80R
$$
MIZ004>006-011>014-085-260400-
CENTRAL UPPER MICHIGAN

CITY           SKY/WX    TMP DP  RH WIND       PRES   REMARKS
MANISTIQUE     CLEAR     50  31  49 NW9G21    29.78S
ESCANABA       CLEAR     52  27  37 NW13G23   29.82S
MENOMINEE      CLEAR     54  23  30 NW5       29.86S
SAWYER-GWINN   CLEAR     48  29  47 W14G20    29.82S
$$
MIZ001>003-009>011-084-260400-
WESTERN UPPER MICHIGAN

CITY           SKY/WX    TMP DP  RH WIND       PRES   REMARKS
IRON MOUNTAIN  CLEAR     50  26  39 NW15G24   29.85R
HOUGHTON       FAIR      48  32  53 NW26G32   29.83S
COPPER HARBOR    N/A     50  34  54 N16G29    29.81R
IRONWOOD       CLEAR     45  28  53 W8        29.92S
$$

ABBREVIATIONS USED IN REMARKS
   TC - TEMPERATURE IN CELSIUS
  WCI - WIND CHILL INDEX
   HX - HEAT INDEX
  VSB - VISIBILITY




USA.gov is the U.S. government's official web portal to all federal, state and local government web resources and services.